• In Hungary
  • List of Countries
  • For 7 days
  • Water Temperature
  • Satellite Maps
  • Weather Map
  • News
  • Weather Widgets
  • user-avatar
    Login

    Hourly Weather Shabagish

    Today, 18 July, Wednesday

    Time Temperature Precipitation Wind Pressure Humidity
    00:00 +20°C° 0.2 mm 4 mps 732 mmHg 89%
    01:00 +20°C° 0.2 mm 5 mps 732 mmHg 88%
    02:00 +20°C° 0 mm 4 mps 732 mmHg 86%
    03:00 +19°C° 0 mm 4 mps 731 mmHg 85%
    04:00 +19°C° 0 mm 4 mps 732 mmHg 83%
    05:00 +19°C° 1 mm 4 mps 732 mmHg 85%
    06:00 +19°C° 1 mm 5 mps 732 mmHg 88%
    07:00 +19°C° 1 mm 5 mps 732 mmHg 90%
    08:00 +20°C° 0.6 mm 5 mps 732 mmHg 89%
    09:00 +20°C° 0.6 mm 5 mps 732 mmHg 89%
    10:00 +21°C° 0.6 mm 6 mps 732 mmHg 88%
    11:00 +22°C° 1.1 mm 6 mps 732 mmHg 86%
    12:00 +23°C° 1.1 mm 6 mps 732 mmHg 84%
    13:00 +23°C° 1.1 mm 6 mps 732 mmHg 82%
    14:00 +24°C° 0.4 mm 6 mps 732 mmHg 78%
    15:00 +26°C° 0.4 mm 5 mps 732 mmHg 75%
    16:00 +27°C° 0.4 mm 5 mps 731 mmHg 72%
    17:00 +26°C° 0.7 mm 4 mps 731 mmHg 75%
    18:00 +26°C° 0.7 mm 3 mps 731 mmHg 78%
    19:00 +26°C° 0.7 mm 2 mps 731 mmHg 80%
    20:00 +24°C° 0.8 mm 2 mps 731 mmHg 82%
    21:00 +23°C° 0.8 mm 2 mps 731 mmHg 84%
    22:00 +21°C° 0.8 mm 2 mps 731 mmHg 86%
    23:00 +20°C° 0.7 mm 2 mps 731 mmHg 87%

    Tomorrow, 19 July, Thursday

    Time Temperature Precipitation Wind Pressure Humidity
    00:00 +21°C° 0.7 mm 1 mps 732 mmHg 88%
    01:00 +20°C° 0.7 mm 1 mps 732 mmHg 88%
    02:00 +20°C° 0.6 mm 1 mps 732 mmHg 89%
    03:00 +19°C° 0.6 mm 2 mps 732 mmHg 90%
    04:00 +18°C° 0.6 mm 2 mps 732 mmHg 91%
    05:00 +20°C° 0.1 mm 2 mps 732 mmHg 89%
    06:00 +21°C° 0.1 mm 2 mps 733 mmHg 87%
    07:00 +23°C° 0.1 mm 2 mps 733 mmHg 84%
    08:00 +24°C° 0.5 mm 2 mps 733 mmHg 78%
    09:00 +26°C° 0.5 mm 2 mps 733 mmHg 71%
    10:00 +28°C° 0.5 mm 2 mps 733 mmHg 64%
    11:00 +28°C° 0 mm 2 mps 733 mmHg 60%
    12:00 +29°C° 0 mm 2 mps 733 mmHg 55%
    13:00 +30°C° 0 mm 2 mps 733 mmHg 51%
    14:00 +30°C° 0 mm 2 mps 733 mmHg 51%
    15:00 +30°C° 0 mm 2 mps 734 mmHg 51%
    16:00 +30°C° 0 mm 1 mps 734 mmHg 52%
    17:00 +29°C° 0 mm 1 mps 734 mmHg 56%
    18:00 +29°C° 0 mm 1 mps 734 mmHg 61%
    19:00 +28°C° 0 mm 1 mps 734 mmHg 65%
    20:00 +26°C° 0 mm 1 mps 734 mmHg 69%
    21:00 +24°C° 0 mm 1 mps 734 mmHg 72%
    22:00 +23°C° 0 mm 1 mps 734 mmHg 75%
    23:00 +22°C° 0 mm 1 mps 734 mmHg 78%

    Day after tomorrow, 20 July, Friday

    Time Temperature Precipitation Wind Pressure Humidity
    00:00 +22°C° 0 mm 1 mps 734 mmHg 80%
    01:00 +21°C° 0 mm 1 mps 734 mmHg 82%
    02:00 +21°C° 0 mm 1 mps 734 mmHg 83%
    03:00 +20°C° 0 mm 1 mps 734 mmHg 83%
    04:00 +20°C° 0 mm 1 mps 734 mmHg 84%
    05:00 +21°C° 0 mm 1 mps 734 mmHg 81%
    06:00 +22°C° 0 mm 1 mps 734 mmHg 78%
    07:00 +24°C° 0 mm 1 mps 734 mmHg 75%
    08:00 +25°C° 0 mm 1 mps 734 mmHg 71%
    09:00 +27°C° 0 mm 2 mps 734 mmHg 66%
    10:00 +28°C° 0 mm 2 mps 734 mmHg 61%
    11:00 +29°C° 0.2 mm 2 mps 734 mmHg 58%
    12:00 +29°C° 0.2 mm 2 mps 734 mmHg 54%
    13:00 +30°C° 0.2 mm 2 mps 734 mmHg 51%
    14:00 +30°C° 0 mm 2 mps 734 mmHg 52%
    15:00 +30°C° 0 mm 3 mps 734 mmHg 53%
    16:00 +30°C° 0 mm 3 mps 734 mmHg 54%
    17:00 +29°C° 0.1 mm 3 mps 734 mmHg 61%
    18:00 +28°C° 0.1 mm 3 mps 734 mmHg 68%
    19:00 +27°C° 0.1 mm 3 mps 734 mmHg 75%
    20:00 +25°C° 0 mm 3 mps 734 mmHg 79%
    21:00 +24°C° 0 mm 3 mps 734 mmHg 82%
    22:00 +21°C° 0 mm 2 mps 734 mmHg 86%
    23:00 +21°C° 0 mm 3 mps 734 mmHg 88%

    21 July, Saturday

    Time Temperature Precipitation Wind Pressure Humidity
    00:00 +20°C° 0 mm 3 mps 734 mmHg 90%
    01:00 +20°C° 0 mm 3 mps 734 mmHg 92%
    02:00 +20°C° 0 mm 3 mps 734 mmHg 93%
    03:00 +19°C° 0 mm 3 mps 734 mmHg 93%
    04:00 +19°C° 0 mm 3 mps 734 mmHg 94%
    05:00 +20°C° 0 mm 4 mps 734 mmHg 91%
    06:00 +20°C° 0 mm 4 mps 734 mmHg 88%
    07:00 +21°C° 0 mm 5 mps 735 mmHg 85%
    08:00 +22°C° 0 mm 5 mps 735 mmHg 81%
    09:00 +23°C° 0 mm 5 mps 735 mmHg 76%
    10:00 +26°C° 0 mm 5 mps 735 mmHg 72%
    11:00 +27°C° 0 mm 5 mps 735 mmHg 68%
    12:00 +27°C° 0 mm 5 mps 735 mmHg 64%
    13:00 +28°C° 0 mm 5 mps 735 mmHg 60%
    14:00 +28°C° 0 mm 6 mps 735 mmHg 61%
    15:00 +28°C° 0 mm 6 mps 735 mmHg 61%
    16:00 +28°C° 0 mm 6 mps 735 mmHg 62%
    17:00 +27°C° 0 mm 6 mps 735 mmHg 66%
    18:00 +27°C° 0 mm 5 mps 735 mmHg 71%
    19:00 +26°C° 0 mm 4 mps 735 mmHg 75%
    20:00 +25°C° 0 mm 5 mps 735 mmHg 76%
    21:00 +23°C° 0 mm 5 mps 735 mmHg 77%
    22:00 +22°C° 0 mm 6 mps 735 mmHg 77%
    23:00 +21°C° 0 mm 6 mps 735 mmHg 78%

    22 July, Sunday

    Time Temperature Precipitation Wind Pressure Humidity
    00:00 +21°C° 0 mm 6 mps 734 mmHg 78%
    01:00 +21°C° 0 mm 6 mps 734 mmHg 78%
    02:00 +20°C° 0 mm 6 mps 734 mmHg 78%
    03:00 +20°C° 0 mm 7 mps 734 mmHg 79%
    04:00 +20°C° 0 mm 7 mps 734 mmHg 80%
    05:00 +20°C° 0 mm 7 mps 734 mmHg 79%
    06:00 +20°C° 0 mm 7 mps 735 mmHg 78%
    07:00 +21°C° 0 mm 8 mps 735 mmHg 77%
    08:00 +22°C° 0 mm 8 mps 735 mmHg 74%
    09:00 +23°C° 0 mm 8 mps 735 mmHg 70%
    10:00 +24°C° 0 mm 8 mps 735 mmHg 66%
    11:00 +26°C° 0 mm 8 mps 735 mmHg 64%
    12:00 +26°C° 0 mm 8 mps 735 mmHg 62%
    13:00 +27°C° 0 mm 8 mps 735 mmHg 60%
    14:00 +27°C° 0 mm 8 mps 735 mmHg 61%
    15:00 +27°C° 0 mm 7 mps 735 mmHg 62%
    16:00 +27°C° 0 mm 7 mps 735 mmHg 62%
    17:00 +24°C° 0 mm 6 mps 735 mmHg 65%
    18:00 +23°C° 0 mm 6 mps 736 mmHg 67%
    19:00 +22°C° 0 mm 6 mps 736 mmHg 69%
    20:00 +21°C° 0 mm 6 mps 736 mmHg 64%
    21:00 +21°C° 0 mm 7 mps 736 mmHg 59%
    22:00 +20°C° 0 mm 7 mps 736 mmHg 53%
    23:00 +20°C° 0 mm 7 mps 736 mmHg 53%

    23 July, Monday

    Time Temperature Precipitation Wind Pressure Humidity
    00:00 +18°C° 0 mm 7 mps 736 mmHg 53%
    01:00 +17°C° 0 mm 6 mps 736 mmHg 54%
    02:00 +17°C° 0 mm 6 mps 737 mmHg 55%
    03:00 +16°C° 0 mm 6 mps 737 mmHg 56%
    04:00 +16°C° 0 mm 5 mps 737 mmHg 57%
    05:00 +16°C° 0 mm 6 mps 737 mmHg 59%
    06:00 +16°C° 0 mm 6 mps 737 mmHg 62%
    07:00 +16°C° 0 mm 6 mps 737 mmHg 64%
    08:00 +17°C° 0 mm 6 mps 738 mmHg 61%
    09:00 +18°C° 0 mm 7 mps 738 mmHg 58%
    10:00 +20°C° 0 mm 7 mps 738 mmHg 55%
    11:00 +21°C° 0 mm 7 mps 738 mmHg 53%
    12:00 +22°C° 0 mm 7 mps 738 mmHg 51%
    13:00 +23°C° 0 mm 6 mps 738 mmHg 49%
    14:00 +23°C° 0 mm 6 mps 738 mmHg 49%
    15:00 +23°C° 0 mm 6 mps 738 mmHg 50%
    16:00 +24°C° 0 mm 6 mps 738 mmHg 50%
    17:00 +23°C° 0 mm 5 mps 738 mmHg 55%
    18:00 +21°C° 0 mm 5 mps 738 mmHg 60%
    19:00 +20°C° 0 mm 4 mps 738 mmHg 65%
    20:00 +19°C° 0 mm 4 mps 738 mmHg 66%
    21:00 +18°C° 0 mm 4 mps 739 mmHg 67%
    22:00 +15°C° 0 mm 5 mps 739 mmHg 68%
    23:00 +14°C° 0 mm 4 mps 739 mmHg 68%
    Show more